Flag for United Kingdom Weather past 2 weeks in Swansea, Wales, United Kingdom

Now
54 °F

Cool.


Feels Like: 51 °F
Forecast: 47 / 65 °F
Wind: 9 mph from Northwest

Location: Mumbles

Current Time: Aug 21, 2014 at 12:34:01 AM

Latest Report: Aug 20, 2014 at 11:00 PM


Visibility: N/A

Pressure: 30.11 "Hg

Humidity: 70%

Dew point: 44 °F

Location of SwanseaLocation

Historic Weather in Swansea — Graph

°F

Swansea temperature yesterday

Maximum temperature yesterday: 62 °F (at 3:00 PM)
Minimum temperature yesterday: 51 °F (at 5:00 AM)
Average temperature yesterday: 56 °F

Past Weeks' High & Low Weather Summary

 TemperatureHumidityPressure
High70 °F (Aug 8, 2:00 PM)100% (Aug 5, 11:00 PM)30.23 "Hg (Aug 5, 11:00 PM)
Low32 °F (Aug 5, 11:00 PM)47% (Aug 18, 6:00 PM)29.29 "Hg (Aug 10, 9:00 AM)
Average60 °F73%29.88 "Hg
* Reported Aug 5 11:00 PM — Aug 20 11:00 PM, Swansea, Weather by CustomWeather, © 2014

Note: Actual official high and low records may vary slightly from our data, if they occured in-between our weather recording intervals... More about our weather records

Advertising

Swansea weather history for previous 24 hours

 ConditionsComfort  
Time TempWeatherWind HumidityBarometerVisibility
11:00 PM
Aug 20
54 °FCool.9 mph70%30.11 "HgN/A
10:00 PM54 °FCool.9 mph70%30.12 "HgN/A
9:00 PM55 °FCool.8 mph65%30.11 "HgN/A
8:00 PM57 °FCool.6 mph62%30.11 "HgN/A
7:00 PM59 °FRefreshingly cool.10 mph54%30.10 "HgN/A
6:00 PM60 °FRefreshingly cool.12 mph51%30.10 "HgN/A
5:00 PM60 °FRefreshingly cool.10 mph53%30.10 "HgN/A
4:00 PM60 °FRefreshingly cool.9 mph53%30.11 "HgN/A
3:00 PM62 °FRefreshingly cool.14 mph47%30.11 "HgN/A
2:00 PM60 °FRefreshingly cool.12 mph51%30.11 "HgN/A
1:00 PM61 °FRefreshingly cool.8 mph50%30.11 "HgN/A
12:00 PM60 °FRefreshingly cool.10 mph51%30.11 "HgN/A
11:00 AM59 °FRefreshingly cool.9 mph53%30.11 "HgN/A
10:00 AM58 °FCool.8 mph66%30.11 "HgN/A
9:00 AM55 °FCool.3 mph75%30.10 "HgN/A
8:00 AM51 °FCool.6 mph81%30.09 "HgN/A
7:00 AM51 °FCool.7 mph80%30.08 "HgN/A
6:00 AM52 °FCool.7 mph74%30.08 "HgN/A
5:00 AM51 °FCool.7 mph78%30.08 "HgN/A
4:00 AM51 °FCool.7 mph79%30.09 "HgN/A
3:00 AM53 °FCool.7 mph77%30.09 "HgN/A
2:00 AM53 °FCool.10 mph73%30.09 "HgN/A
1:00 AM53 °FCool.13 mph72%30.09 "HgN/A
12:00 AM53 °FCool.8 mph74%30.09 "HgN/A
Weather by CustomWeather, © 2014

See weather overviewHow to use our weather pages